Regional Weather Roundup
Issued by NWS

Home | Current Version | Previous Version | Graphics & Text | Print | Product List | Glossary Off
Versions: 1 2 3 4 5 6 7 8 9 10 11 12 13 14 15 16 17 18 19 20 21 22 23 24 25 26 27 28 29 30 31 32 33 34 35 36 37 38 39 40 41 42 43 44 45 46 47 48 49 50

000
ASUS43 KMKX 300921
RWRWI

WISCONSIN REGIONAL WEATHER ROUNDUP
NATIONAL WEATHER SERVICE MILWAUKEE/SULLIVAN WI
400 AM CDT SAT MAY 30 2015

NOTE: "FAIR" INDICATES FEW OR NO CLOUDS BELOW 12,000 FEET WITH NO
SIGNIFICANT WEATHER AND/OR OBSTRUCTIONS TO VISIBILITY.

WIZ001-002-006>008-014>016-023>028-301000-
NORTHWEST WISCONSIN

CITY           SKY/WX    TMP DP  RH WIND       PRES   REMARKS
SUPERIOR ARPT  CLEAR     47  38  73 N7G17     30.15R
ASHLAND        CLOUDY    49  42  77 N7        30.12R
HAYWARD        CLOUDY    48  42  80 N9G17     30.10R
SIREN          CLEAR     45  41  87 N6        30.13R
CUMBERLAND     CLOUDY    46  43  87 N13       30.09R
RICE LAKE      MOCLDY    49  43  79 N12G23    30.09S
CHETEK         CLOUDY    49  46  87 N7        30.07S
LADYSMITH      CLOUDY    50  47  89 N10G18    30.07R
EAU CLAIRE     CLOUDY    52  47  83 N12G20    30.03R
MENOMONIE      CLOUDY    51  48  89 N12G17    30.06R
NEW RICHMOND   CLOUDY    49  45  84 N13       30.10R
OSCEOLA        CLOUDY    48  46  91 N7        30.14R
$$

WIZ003>005-009-010-017-018-301000-
NORTH CENTRAL WISCONSIN

CITY           SKY/WX    TMP DP  RH WIND       PRES   REMARKS
MANITOWISH WTR CLOUDY    46  46 100 N8        30.05S
ARBOR VITAE    CLOUDY    52  50  95 N9        30.04R
WOODRUFF       CLOUDY    52  50  95 N9        30.04R
RHINELANDER    CLOUDY    52  50  93 N3        30.03R
EAGLE RIVER    CLOUDY    51  50  96 N6        30.03R
LAND O LAKES   CLOUDY    51  48  91 N9        30.04R
PHILLIPS       CLOUDY    47  46  93 N10       30.05R
TOMAHAWK       CLOUDY    50  49  95 N6        30.03R
MEDFORD        CLOUDY    50  48  94 N12G20    30.01S
MERRILL        CLOUDY   N/A N/A N/A N8        30.01R
$$

WIZ029-030-035-036-043>047-301000-
CENTRAL WISCONSIN

CITY           SKY/WX    TMP DP  RH WIND       PRES   REMARKS
WAUSAU         CLOUDY    56  52  86 N10       29.98R
MOSINEE        RAIN      55  55 100 N12       29.99R
MARSHFIELD     LGT RAIN  57  53  86 N13G20    29.98R
STEVENS POINT  RAIN      56  55  95 N10G16    29.96S
WAUPACA        RAIN      64  63  97 N7        29.93S
WAUTOMA        LGT RAIN  63  63 100 CALM      29.93R FOG
WISC RAPIDS    LGT RAIN  59  55  87 NE10      29.97R
CAMP DOUGLAS   NOT AVBL
$$

WIZ011>013-019>022-031-037>040-048>050-301000-
NORTHEAST WISCONSIN

CITY           SKY/WX    TMP DP  RH WIND       PRES   REMARKS
ANTIGO         CLOUDY    53  51  94 NE10G18   29.99R
SHAWANO        RAIN      57  55  95 NE13      29.97R
OCONTO         CLOUDY    55  55 100 N8        29.97R
STURGEON BAY   CLOUDY    54  48  82 N16       29.99R
GREEN BAY      LGT RAIN  58  56  93 NE13      29.95R
MANITOWOC      LGT RAIN  56  55  97 NE12G18   29.94R
APPLETON       LGT RAIN  61  61 100 NE10G23   29.93R
CLINTONVILLE   RAIN      55  54  94 NE12G22   29.96R
OSHKOSH        LGT RAIN  65  63  93 CALM      29.91R FOG
$$

WIZ032>034-041-042-053>061-301000-
SOUTHWEST WISCONSIN

CITY           SKY/WX    TMP DP  RH WIND       PRES   REMARKS
LA CROSSE      LGT RAIN  61  57  87 N15       29.96R
SPARTA         DRIZZLE   58  57  95 N9        29.96R
VIROQUA        CLOUDY    59  59 100 N15       29.94R
BOSCOBEL       LGT RAIN  67  65  93 CALM      29.90S
PRAIRIE DU CHI CLOUDY    67  64  90 SW3       29.89S
PLATTEVILLE    CLOUDY    65  64  96 SW6       29.92S
$$

WIZ056-057-062-063-064-067-068-301000-
SOUTH CENTRAL WISCONSIN

CITY           SKY/WX    TMP DP  RH WIND       PRES   REMARKS
REEDSBURG      CLOUDY    63  63 100 CALM      29.90S
BARABOO/DELLS  CLOUDY    63  62  94 CALM      29.90F
LONE ROCK      CLOUDY    67  65  93 CALM      29.90S
MINERAL POINT  CLOUDY    64  63  94 SW7       29.92S
MADISON        CLOUDY    66  63  90 CALM      29.90S
MIDDLETON      CLOUDY    67  66  97 SW3       29.91S
WATERTOWN      CLOUDY   N/A N/A N/A CALM      29.90F
MONROE         CLOUDY    64  63  94 SW6       29.92F
JANESVILLE     CLOUDY    68  64  88 SW3       29.92R
$$

WIZ051-052-058>065-066-070>072-301000-
SOUTHEAST WISCONSIN

CITY           SKY/WX    TMP DP  RH WIND       PRES   REMARKS
MILWAUKEE      CLOUDY    66  63  90 CALM      29.91S
WAUKESHA       CLOUDY    63  61  94 CALM      29.93S
MILWAUKEE/TIMM LGT RAIN  64  61  88 CALM      29.92S
RACINE         CLOUDY    65  64  97 CALM      29.94R
BURLINGTON     CLOUDY    63  62  97 S3        29.92S
KENOSHA        CLOUDY    67  63  87 SW6       29.92S
FOND DU LAC    LGT RAIN  64  63  96 CALM      29.91R
SHEBOYGAN      HVY RAIN  58  56  93 NE21G29   29.94R FOG
WEST BEND      RAIN      63  61  94 CALM      29.92S
JUNEAU         CLOUDY    63  63  98 CALM      29.93R
$$

LSZ147-162-301000-
LAKE SUPERIOR

STATION/POSITION TIME  TEMP    WIND        PRES    WAVE
                       AIR SEA DIR/SP/G            HT/PER
                 (UTC) (F)     (DEG/KT/KT) (MB)    (FT/S)
W MID LAKE BUOY  0850   41 37  350/  8/  8   N/A     1
DEVILS ISLAND    0900   45     350/ 12/ 14   N/A
PORT WING        0800   47     320/  2/  4   N/A
SAXON HARBOR     0800   51     320/ 11/ 13   N/A
$$

LMZ867-665-643>646-301000-
LAKE MICHIGAN

STATION/POSITION TIME  TEMP    WIND        PRES    WAVE
                       AIR SEA DIR/SP/G            HT/PER
                 (UTC) (F)     (DEG/KT/KT) (MB)    (FT/S)
CHAMBERS ISLAND  0800   54     350/ 15/ 18   N/A
N MID LAKE BUOY  0850   43 37  310/  8/  8   N/A     1/ 3
NORTHPORT PIER   0800   53     340/ 14/ 20   N/A
SISTER BAY       0818   52     360/ 14/ 16   N/A
ALGOMA LAKESHORE 0839           40/  5/  8   N/A
KEWAUNEE LAKESHO 0900   51      20/  8/ 11   N/A
SHEBOYGAN LAKESH 0900   55      20/ 15/ 16   N/A
PORT WASHINGTON  0840   62     310/  1/  4   N/A
ATWATER BUOY     0900   56      80/  4/  6   N/A
MILWAUKEE LAKESH 0900   58      60/  5/  6   N/A
S MID LAKE BUOY  0850   48 38  290/  4/  4   N/A     1
KENOSHA   LAKESH 0900   69     240/  6/  8   N/A
$$

TC  - TEMPERATURE IN CELSIUS
VSB - VISIBILITY IN STATUTE MILES
WCI - WIND CHILL INDEX
HX  - HEAT INDEX



USA.gov is the U.S. government's official web portal to all federal, state and local government web resources and services.